GFSNIL_sfc_thetae_093.txt.gz
Theta_e
317 317 316 315 318 322 321 320 320 317 317 319 319 318 315 312 309 307 306 306 305 303
310 311 312 311 311 312 313 313 314 314 313 313 313 313 314 312 308 307 306 305 304 302
301 303 305 306 307 306 306 306 306 308 309 310 309 309 309 308 306 305 304 303 303 302
298 299 300 301 301 302 302 302 301 302 302 303 304 306 306 306 304 303 303 302 302 302
296 296 297 297 298 298 299 299 299 298 298 299 300 301 303 303 303 303 302 302 301 301
292 292 293 294 295 295 296 296 296 295 295 295 296 299 300 301 301 301 302 301 299 299
289 289 290 291 291 291 292 292 292 292 292 292 292 292 293 293 296 298 299 298 296 296
287 288 288 288 288 288 289 289 289 289 290 290 289 289 290 290 292 292 293 291 292 292
285 285 286 286 286 287 287 287 288 288 288 288 287 290 292 292 289 289 289 290 290 290
284 283 284 284 285 285 285 286 286 286 286 286 287 290 291 291 289 288 288 288 288 288
282 282 283 282 283 282 283 283 283 284 284 283 285 288 290 290 288 287 287 286 287 287
281 279 279 278 280 281 280 281 280 282 281 280 281 286 287 288 286 286 286 286 286 286
279 276 276 278 278 279 277 279 279 280 280 277 279 284 287 287 286 285 285 285 285 284
278 276 277 276 276 275 275 275 276 276 277 277 277 280 285 287 286 285 285 285 284 284

GFSNIL_sfc_thetae_096.txt.gz
Theta_e
322 322 323 324 325 327 328 327 325 324 324 323 321 321 318 316 312 310 308 308 307 306
314 315 316 316 316 317 317 314 315 316 316 316 316 315 316 315 312 311 309 308 308 307
307 309 310 312 313 314 315 315 315 316 315 313 313 313 312 312 311 309 308 308 306 306
304 304 305 306 306 306 307 308 308 309 310 310 310 311 310 310 309 306 307 305 304 304
299 300 301 301 302 303 303 304 304 304 305 306 306 307 307 306 307 306 304 304 302 303
295 296 296 297 297 298 298 300 300 300 300 301 301 301 302 302 302 303 304 304 302 302
293 293 293 294 294 294 295 295 296 296 296 296 296 295 295 294 297 298 300 300 300 300
291 291 292 291 291 292 292 292 293 292 293 294 294 292 294 292 293 293 294 294 294 294
289 289 289 289 289 290 290 291 291 291 291 291 290 291 292 292 291 291 290 290 291 291
287 287 288 288 288 288 288 289 289 289 290 290 291 290 290 290 290 290 290 290 289 289
286 285 286 286 286 286 287 286 286 287 287 287 288 288 289 289 290 290 290 291 290 290
284 283 283 283 284 285 285 285 285 285 285 285 285 287 287 288 289 288 288 289 290 289
284 282 282 284 283 284 283 283 283 284 285 284 283 285 286 287 288 286 287 288 288 286
283 281 282 283 283 282 282 282 281 282 283 283 284 283 285 286 286 286 285 285 285 287

GFSNIL_sfc_thetae_102.txt.gz
Theta_e
314 315 317 318 318 319 319 320 319 321 321 321 321 321 319 318 316 314 312 311 311 310
311 312 312 315 315 314 314 312 313 314 315 315 315 315 315 314 313 312 311 311 310 309
304 305 306 305 303 304 305 305 304 304 305 306 309 309 310 309 309 309 309 308 308 308
298 298 298 298 298 298 299 300 300 300 301 301 302 302 302 303 304 304 305 306 305 306
295 294 294 294 294 294 295 296 296 296 296 296 297 297 297 297 297 299 299 300 301 301
292 292 291 292 292 292 292 292 292 292 292 292 292 293 293 293 293 294 295 296 296 297
290 291 291 291 290 290 290 290 290 290 289 289 289 289 287 288 290 292 293 293 293 294
289 290 289 288 288 288 287 288 287 287 287 287 288 287 286 286 288 289 289 289 290 290
287 286 285 285 285 285 285 285 285 285 285 284 285 290 291 289 284 285 286 287 288 289
284 284 284 284 284 284 284 284 284 283 283 283 283 289 290 289 284 284 284 285 286 287
283 282 283 283 283 283 283 282 282 282 282 282 283 288 288 288 284 283 283 284 285 285
281 280 281 278 281 281 279 279 278 281 279 279 281 286 287 286 283 283 284 285 286 286
280 276 276 279 278 279 277 281 281 281 277 277 278 285 287 286 282 282 283 284 285 285
279 276 276 276 276 274 275 277 273 277 278 277 278 280 286 287 282 281 282 282 282 284

GFSNIL_sfc_thetae_105.txt.gz
Theta_e
311 312 316 317 317 316 316 317 317 317 319 319 318 318 318 317 315 315 312 312 311 311
307 308 307 308 309 308 307 307 308 309 310 312 312 312 311 311 310 310 310 310 309 309
299 300 300 301 300 300 301 301 300 300 300 301 301 301 302 302 302 302 303 305 306 307
294 294 295 294 294 295 295 295 295 296 296 296 296 296 296 296 296 296 298 299 300 301
292 292 291 291 291 292 292 292 292 292 292 292 293 293 293 292 292 292 292 293 295 296
290 290 290 289 290 290 290 290 290 290 289 289 290 290 289 289 289 290 291 292 292 292
288 289 289 289 288 288 288 288 288 288 287 286 287 287 286 286 287 287 288 289 289 290
288 288 287 287 287 286 286 286 285 285 285 284 285 285 286 285 285 284 284 285 286 287
285 284 284 284 284 284 284 284 284 284 284 283 284 289 290 288 284 283 283 283 283 284
284 284 283 284 284 283 283 283 283 283 283 282 282 288 289 289 284 283 282 282 283 285
283 282 282 282 282 282 282 281 281 281 281 281 282 287 288 288 283 281 281 281 284 284
281 279 280 278 280 281 278 278 277 280 277 275 278 285 287 286 281 282 281 282 282 284
280 276 275 278 277 278 275 279 279 278 276 275 273 283 287 286 281 279 282 283 284 284
278 275 275 275 275 272 271 274 269 273 273 272 274 276 286 286 284 283 282 283 283 283

GFSNIL_sfc_thetae_111.txt.gz
Theta_e
317 317 317 318 318 316 314 312 314 314 313 311 311 312 312 310 308 309 308 306 306 308
308 313 312 306 307 306 305 304 304 304 303 302 302 302 300 298 297 297 297 296 296 297
299 301 301 301 300 299 300 300 298 296 295 294 294 294 293 292 292 292 292 292 292 292
295 295 295 295 294 293 293 293 292 292 292 291 290 290 290 289 289 289 289 289 289 289
292 292 292 291 291 291 290 290 289 289 289 289 288 288 287 287 287 287 286 287 287 287
289 290 289 289 289 289 288 287 287 287 286 286 286 286 286 286 286 285 285 285 285 285
288 288 288 287 287 286 286 285 285 284 284 284 284 285 285 285 284 283 283 284 284 283
286 287 285 285 284 284 284 284 284 283 283 284 285 285 284 284 284 283 283 282 282 283
285 284 284 283 283 283 283 283 283 283 283 282 284 289 289 285 283 283 282 281 281 282
284 284 283 283 283 283 283 283 282 282 282 282 283 288 289 287 283 282 281 281 281 282
283 283 283 283 282 282 282 282 281 281 281 281 283 288 288 286 282 282 282 282 283 283
282 282 281 281 281 281 279 278 278 279 277 277 277 287 287 285 283 283 283 283 284 283
281 280 279 280 279 278 277 278 278 278 275 274 272 283 286 285 281 278 281 283 283 284
279 279 279 278 277 275 275 276 271 273 272 271 272 274 284 285 283 281 280 281 281 282

GFSNIL_sfc_thetae_114.txt.gz
Theta_e
323 321 320 318 319 317 316 315 315 313 312 312 312 312 310 307 306 304 302 299 299 300
320 320 317 314 313 312 310 307 306 304 303 302 302 301 298 297 295 295 294 293 293 293
311 313 310 308 306 304 302 302 299 297 296 295 294 293 292 291 291 290 290 290 289 289
301 301 301 300 299 296 295 294 293 292 291 290 290 289 289 288 288 287 287 287 287 287
296 297 296 294 293 292 291 291 291 290 289 288 287 287 287 286 286 285 285 285 285 285
291 292 292 291 290 290 289 289 287 287 287 286 286 286 285 285 285 284 284 284 283 283
288 289 289 288 288 287 287 286 286 285 284 285 284 285 284 284 284 283 283 283 283 283
286 287 287 286 286 285 285 285 284 284 283 284 285 285 284 284 284 283 282 282 282 283
286 285 285 284 284 284 284 283 283 283 283 284 285 290 289 285 283 282 282 281 281 282
285 284 284 284 283 283 283 283 282 282 283 283 285 289 289 286 283 282 281 281 282 282
284 283 283 283 282 282 282 281 281 281 282 282 285 289 287 285 282 282 282 282 282 282
283 282 282 282 281 280 279 279 279 280 280 280 280 287 287 284 282 282 282 282 282 283
282 282 282 281 279 278 279 279 280 280 278 277 277 286 287 284 281 277 280 281 282 283
281 281 280 279 277 278 278 278 277 277 275 275 277 278 285 286 281 279 277 277 278 280

GFSNIL_sfc_thetae_117.txt.gz
Theta_e
326 325 325 324 322 322 321 321 320 317 316 315 314 313 311 308 305 305 304 303 303 300
324 324 321 320 320 318 315 312 311 310 308 306 305 304 303 301 299 298 298 298 296 295
317 321 318 315 313 312 308 307 305 303 300 299 297 297 297 295 294 294 293 293 292 292
308 310 310 310 308 306 303 300 298 297 295 294 293 293 293 292 291 290 290 290 290 289
301 303 303 302 300 300 297 295 294 293 291 291 290 290 290 289 289 288 288 288 288 287
298 299 298 296 295 295 293 292 290 290 289 289 288 288 288 288 287 287 286 286 286 286
295 295 294 293 292 291 291 289 288 288 287 287 287 287 286 286 286 285 285 286 285 285
290 290 290 289 288 288 288 287 287 286 286 286 286 285 286 285 285 285 284 284 284 285
289 288 288 287 286 286 285 285 285 286 286 286 286 289 288 286 285 284 283 283 283 284
287 286 286 286 285 284 284 285 284 285 286 286 288 289 288 286 284 284 283 283 283 283
286 285 285 284 284 283 284 284 283 283 284 285 287 289 287 285 284 283 283 283 284 283
285 284 283 283 283 282 282 282 282 282 283 285 286 288 287 285 283 283 283 283 284 283
285 284 284 283 282 281 282 281 281 281 282 282 285 288 287 285 284 283 282 283 283 282
284 284 283 281 280 281 281 280 280 280 280 281 282 285 288 287 283 282 281 281 281 282

GFSNIL_sfc_thetae_123.txt.gz
Theta_e
333 333 333 333 333 333 333 332 331 330 330 330 328 326 324 320 316 315 314 311 310 308
332 332 331 333 334 333 334 331 329 329 327 326 323 319 316 311 308 310 310 308 308 303
330 331 332 332 332 332 333 328 327 325 322 317 313 311 308 304 303 303 302 301 300 298
327 329 329 328 328 329 328 323 321 318 313 309 306 305 303 301 299 299 296 297 296 295
322 323 324 324 323 321 320 318 316 312 309 306 304 303 301 298 297 296 295 295 294 293
315 316 318 319 315 313 310 309 307 307 304 303 301 300 299 296 295 294 294 293 292 291
309 312 309 305 305 304 304 302 302 302 303 297 298 295 294 293 293 292 292 292 291 291
305 307 306 301 299 297 298 299 297 296 293 294 292 290 290 290 290 289 289 289 288 289
300 299 298 296 293 294 291 291 292 291 291 289 287 292 292 290 288 287 287 286 286 285
292 292 292 290 290 289 289 289 289 288 289 287 288 291 291 289 287 287 286 285 285 284
290 289 288 288 288 287 287 288 288 288 287 287 288 291 290 288 287 286 286 285 285 284
289 288 287 287 287 286 287 287 287 287 287 287 287 290 289 287 286 285 284 285 286 285
289 288 287 287 286 286 287 286 286 286 287 287 287 289 289 287 285 284 284 284 285 284
288 288 288 287 286 286 285 285 285 285 286 286 287 287 289 288 285 284 284 283 283 284